Location: Noyers
(47.2770°N, 1.4032°E)
Time: 23:37:05
(UTC+00:00)

Okean 1-7 Rocket - Pass Details

Date: 15 May 2026
Orbit: 611 x 641 km, 82.5° (Epoch: 11 June)

Event Time Altitude Azimuth Distance (km) Brightness Sun altitude
Rises 21:41:38 0° 348° (NNW) 2,928 8.4 -17.6°
Reaches altitude 10° 21:43:53 10° 347° (NNW) 2,021 7.3 -17.8°
Maximum altitude 21:48:21 72° 263° (W) 670 3.7 -18.2°
Enters shadow 21:50:21 32° 187° (S) 1,089 4.4 -18.4°
